Dutzow, MO

5:36 AM CST on February 08, 2016 (GMT -0600)
Washington

Weather History for KFYG - August, 2014

Change the Weather History Date:

Wednesday, August 27, 2014

  Actual Average (KSTL) Record (KSTL)
Temperature  
Mean Temperature 81 °F 77 °F  
Max Temperature 93 °F 87 °F 102 °F (1881)
Min Temperature 69 °F 68 °F 51 °F (1968)
Degree Days  
Heating Degree Days 0 0  
Month to date heating degree days 0  
Since 1 June heating degree days 5  
Since 1 July heating degree days 0  
Cooling Degree Days 16 12  
Month to date cooling degree days 378  
Year to date cooling degree days 1353  
Since 1 June cooling degree days 1179  
Growing Degree Days 31 (Base 50)    
Moisture  
Dew Point 71 °F    
Average Humidity 83    
Maximum Humidity 100    
Minimum Humidity 52    
Precipitation  
Precipitation 0.45 in 0.09 in 1.72 in (1874)
Month to date precipitation 2.62  
Year to date precipitation 27.38  
Snow  
Snow 0.00 in 0.00 in 0.00 in (2013)
Month to date snowfall 0.0  
Since 1 June snowfall 0.0  
Since 1 July snowfall 0.0  
Snow Depth -    
Sea Level Pressure  
Sea Level Pressure 30.07 in    
Wind  
Wind Speed 2 mph (NE)    
Max Wind Speed 10 mph    
Max Gust Speed 21 mph    
Visibility 8 miles    
Events Rain , Thunderstorm    
T = Trace of Precipitation, MM = Missing Value Source: NWS Daily Summary

Daily Weather History Graph

Daily Weather History Graph

Search for Another Location

Airport or City:

Trip Planner

Search our weather history database for the weather conditions in past years. The results will help you decide how hot, cold, wet, or windy it might be!

Date:

Astronomy

Aug. 27, 2014 Rise Set
Actual Time 6:28 AM CDT 7:41 PM CDT
Civil Twilight 6:01 AM CDT 8:08 PM CDT
Nautical Twilight 5:28 AM CDT 8:41 PM CDT
Astronomical Twilight 4:54 AM CDT 9:15 PM CDT
Moon 8:23 AM CDT (8/27) 8:35 PM CDT (8/27)
Length of Visible Light 14h 07m
Length of Day
13h 12m
Waxing Crescent, 4% of the Moon is Illuminated
Aug 27
Waxing Crescent
Sep 2
First Quarter
Sep 8
Full
Sep 15
Last Quarter
Sep 24
New

Hourly Weather History & Observations

Time (CDT) Temp. Heat Index Dew Point Humidity Pressure Visibility Wind Dir Wind Speed Gust Speed Precip Events Conditions
12:15 AM 75.2 °F - 75.2 °F 100% 30.08 in 7.0 mi NNW 3.5 mph - N/A   Scattered Clouds
12:35 AM 77.0 °F - 75.2 °F 94% 30.09 in 10.0 mi NNW 3.5 mph - N/A   Mostly Cloudy
12:55 AM 80.6 °F 85.4 °F 73.4 °F 79% 30.09 in 10.0 mi ESE 4.6 mph - N/A   Mostly Cloudy
1:15 AM 80.6 °F 84.6 °F 71.6 °F 74% 30.09 in 10.0 mi East 3.5 mph - N/A   Mostly Cloudy
1:55 AM 77.0 °F - 69.8 °F 78% 30.08 in 10.0 mi East 4.6 mph - N/A   Scattered Clouds
2:15 AM 77.0 °F - 69.8 °F 78% 30.08 in 10.0 mi Calm Calm - N/A   Partly Cloudy
2:35 AM 77.0 °F - 68.0 °F 74% 30.08 in 10.0 mi ESE 6.9 mph - N/A   Clear
2:55 AM 75.2 °F - 69.8 °F 83% 30.07 in 10.0 mi SSE 5.8 mph - N/A   Clear
3:15 AM 73.4 °F - 69.8 °F 88% 30.07 in 10.0 mi Calm Calm - N/A   Clear
3:35 AM 73.4 °F - 71.6 °F 94% 30.06 in 10.0 mi Calm Calm - N/A   Clear
3:55 AM 73.4 °F - 69.8 °F 88% 30.06 in 10.0 mi Calm Calm - N/A   Clear
4:15 AM 73.4 °F - 69.8 °F 88% 30.06 in 10.0 mi Calm Calm - N/A   Clear
4:35 AM 73.4 °F - 69.8 °F 88% 30.06 in 10.0 mi Calm Calm - N/A   Clear
4:55 AM 71.6 °F - 69.8 °F 94% 30.06 in 10.0 mi Calm Calm - N/A   Clear
5:15 AM 71.6 °F - 71.6 °F 100% 30.06 in 8.0 mi Calm Calm - N/A   Clear
5:35 AM 71.6 °F - 71.6 °F 100% 30.06 in 9.0 mi Calm Calm - N/A   Clear
5:55 AM 71.6 °F - 69.8 °F 94% 30.06 in 8.0 mi Calm Calm - N/A   Clear
6:15 AM 71.6 °F - 69.8 °F 94% 30.06 in 8.0 mi Calm Calm - N/A   Clear
6:35 AM 71.6 °F - 69.8 °F 94% 30.06 in 6.0 mi Calm Calm - N/A   Clear
6:55 AM 71.6 °F - 69.8 °F 94% 30.06 in 5.0 mi Calm Calm - N/A   Clear
7:15 AM 71.6 °F - 69.8 °F 94% 30.07 in 5.0 mi Calm Calm - N/A   Clear
7:35 AM 73.4 °F - 71.6 °F 94% 30.07 in 5.0 mi Calm Calm - N/A   Clear
7:55 AM 75.2 °F - 73.4 °F 94% 30.08 in 7.0 mi Calm Calm - N/A   Clear
8:15 AM 77.0 °F - 73.4 °F 89% 30.08 in 7.0 mi SSE 3.5 mph - N/A   Clear
8:35 AM 77.0 °F - 73.4 °F 89% 30.08 in 9.0 mi SE 3.5 mph - N/A   Clear
8:55 AM 80.6 °F 85.4 °F 73.4 °F 79% 30.09 in 9.0 mi Calm Calm - N/A   Clear
9:15 AM 80.6 °F 85.4 °F 73.4 °F 79% 30.09 in 10.0 mi Calm Calm - N/A   Clear
9:35 AM 82.4 °F 88.2 °F 73.4 °F 74% 30.10 in 10.0 mi Calm Calm - N/A   Clear
9:55 AM 84.2 °F 90.9 °F 73.4 °F 70% 30.09 in 9.0 mi Calm Calm - N/A   Clear
10:15 AM 84.2 °F 90.9 °F 73.4 °F 70% 30.09 in 9.0 mi Calm Calm - N/A   Clear
10:55 AM 86.0 °F 93.4 °F 73.4 °F 66% 30.09 in 10.0 mi Calm Calm - N/A   Clear
11:15 AM 86.0 °F 93.4 °F 73.4 °F 66% 30.09 in 10.0 mi Calm Calm - N/A   Clear
11:35 AM 89.6 °F 98.2 °F 73.4 °F 59% 30.09 in 10.0 mi Calm Calm - N/A   Clear
11:55 AM 87.8 °F 95.6 °F 73.4 °F 62% 30.08 in 10.0 mi Calm Calm - N/A   Clear
12:15 PM 89.6 °F 98.2 °F 73.4 °F 59% 30.08 in 10.0 mi Calm Calm - N/A   Clear
12:35 PM 89.6 °F 98.2 °F 73.4 °F 59% 30.08 in 10.0 mi Calm Calm - N/A   Clear
12:55 PM 89.6 °F 98.2 °F 73.4 °F 59% 30.08 in 10.0 mi Calm Calm - N/A   Clear
1:15 PM 89.6 °F 98.2 °F 73.4 °F 59% 30.07 in 10.0 mi Calm Calm - N/A   Clear
1:35 PM 89.6 °F 98.2 °F 73.4 °F 59% 30.06 in 10.0 mi NNW 3.5 mph - N/A   Clear
1:55 PM 91.4 °F 102.5 °F 75.2 °F 59% 30.06 in 10.0 mi North 3.5 mph - N/A   Clear
2:15 PM 91.4 °F 100.1 °F 73.4 °F 55% 30.05 in 10.0 mi NNW 5.8 mph - N/A   Clear
2:55 PM 91.4 °F 100.1 °F 73.4 °F 55% 30.04 in 10.0 mi Calm Calm - N/A   Clear
3:15 PM 93.2 °F 102.4 °F 73.4 °F 52% 30.02 in 10.0 mi North 3.5 mph - N/A Thunderstorm Partly Cloudy
3:35 PM 89.6 °F 98.2 °F 73.4 °F 59% 30.01 in 10.0 mi North 5.8 mph - N/A   Mostly Cloudy
3:55 PM 82.4 °F 87.2 °F 71.6 °F 70% 30.03 in 0.8 mi East 10.4 mph 18.4 mph 0.12 in Rain Heavy Rain
4:15 PM 78.8 °F - 68.0 °F 69% 30.03 in 1.2 mi East 9.2 mph - N/A Rain , Thunderstorm Light Rain
4:35 PM 77.0 °F - 71.6 °F 83% 30.04 in 6.0 mi ENE 3.5 mph - 0.12 in Rain , Thunderstorm Light Thunderstorms and Rain
4:55 PM 75.2 °F - 71.6 °F 89% 30.06 in 3.0 mi West 9.2 mph 18.4 mph 0.13 in Rain , Thunderstorm Light Thunderstorms and Rain
5:15 PM 73.4 °F - 71.6 °F 94% 30.05 in 1.2 mi NW 9.2 mph 20.7 mph 0.16 in Rain , Thunderstorm Thunderstorms and Rain
5:35 PM 73.4 °F - 71.6 °F 94% 30.04 in 3.0 mi NE 10.4 mph - 0.16 in Rain , Thunderstorm Light Thunderstorms and Rain
5:55 PM 73.4 °F - 69.8 °F 88% 30.07 in 5.0 mi East 9.2 mph 17.3 mph 0.18 in Rain , Thunderstorm Light Thunderstorms and Rain
6:15 PM 71.6 °F - 68.0 °F 88% 30.05 in 3.0 mi NE 10.4 mph - N/A Rain , Thunderstorm Light Thunderstorms and Rain
6:35 PM 71.6 °F - 68.0 °F 88% 30.07 in 5.0 mi North 5.8 mph - 0.01 in Rain , Thunderstorm Light Thunderstorms and Rain
6:55 PM 71.6 °F - 68.0 °F 88% 30.08 in 4.0 mi North 3.5 mph - 0.02 in Rain , Thunderstorm Light Rain
7:15 PM 71.6 °F - 68.0 °F 88% 30.08 in 5.0 mi SSE 4.6 mph - N/A Rain Light Rain
7:35 PM 71.6 °F - 69.8 °F 94% 30.07 in 9.0 mi Calm Calm - N/A Thunderstorm Thunderstorm
8:15 PM 71.6 °F - 68.0 °F 88% 30.06 in 10.0 mi Calm Calm - N/A   Mostly Cloudy
8:35 PM 71.6 °F - 69.8 °F 94% 30.06 in 10.0 mi Calm Calm - N/A   Mostly Cloudy
8:55 PM 71.6 °F - 69.8 °F 94% 30.05 in 10.0 mi Calm Calm - N/A   Partly Cloudy
9:15 PM 69.8 °F - 69.8 °F 100% 30.05 in 10.0 mi Calm Calm - N/A   Partly Cloudy
9:35 PM 69.8 °F - 69.8 °F 100% 30.05 in 9.0 mi Calm Calm - N/A   Mostly Cloudy
9:55 PM 69.8 °F - 69.8 °F 100% 30.05 in 8.0 mi Calm Calm - N/A   Partly Cloudy
10:15 PM 69.8 °F - 69.8 °F 100% 30.06 in 7.0 mi Calm Calm - N/A   Partly Cloudy
10:35 PM 69.8 °F - 68.0 °F 94% 30.06 in 8.0 mi Calm Calm - N/A   Clear
10:55 PM 69.8 °F - 68.0 °F 94% 30.06 in 5.0 mi Calm Calm - N/A   Clear
11:15 PM 69.8 °F - 68.0 °F 94% 30.06 in 8.0 mi Calm Calm - N/A   Scattered Clouds
11:35 PM 69.8 °F - 68.0 °F 94% 30.06 in 8.0 mi Calm Calm - N/A   Scattered Clouds
11:55 PM 69.8 °F - 68.0 °F 94% 30.06 in 10.0 mi Calm Calm - N/A   Mostly Cloudy